Location: Unspecified
(0.0000°N, 0.0000°E)
Time: 09:43:32
(UTC+00:00)

TerraSAR-X - Visible Passes

Search period start: 16 June 2025 00:00
Search period end: 26 June 2025 00:00
Orbit: 507 x 509 km, 97.4° (Epoch: 15 June)

Date Brightness Start Highest point End Pass type
(mag) Time Alt. Az. Time Alt. Az. Time Alt. Az.
19 Jun 7.9 05:21:00 10° NE 05:23:48 20° ESE 05:26:38 10° SSE visible
19 Jun 8.1 18:46:53 10° SW 18:49:00 15° WSW 18:51:07 10° WNW visible
20 Jun 8.4 05:05:41 10° E 05:06:47 11° ESE 05:07:54 10° ESE visible
20 Jun 7.4 18:28:48 10° SSW 18:31:58 27° WSW 18:35:07 10° NW visible
24 Jun 7.4 05:29:03 10° NE 05:32:15 27° ESE 05:35:27 10° SSE visible
24 Jun 8.4 18:56:31 10° WSW 18:57:25 11° WSW 18:58:18 10° W visible
25 Jun 8.1 05:13:00 10° ENE 05:15:12 15° ESE 05:17:24 10° SE visible
25 Jun 7.9 18:37:37 10° SSW 18:40:23 20° WSW 18:43:07 10° NW visible
